INTELSAT 33E DEB, 64406

Orbit data source: Space-Track

INTELSAT 33E DEB, 64406 is space debris in GEO originally from a launch on Wed, 24 Aug 2016 UTC launched from the French Guiana (FRGUI). Debris objects in space refer to the collection of defunct objects orbiting the Earth. Examples of debris include non-operational satellites, rocket bodies, and fragments generated from explosions, collisions, or faulty payload assembly.

Not visible in the next 10 days
Identifier
64406, 2016-053AL
Orbit
GEO
Country
Flag of UnknownUnknown / ITSO
Related business
Manufacturer
Boeing/ES
Mission
Spacecraft
Bus & Motor
Unknown
Mass
Unknown
Launch date (UTC)
2016-08-24 (9 years ago)
Launch vehicle
Unknown
Launch site
French Guiana (FRGUI)
Object type
Payload
Rocket body
Debris
Shape & HBR
Unknown shape, 1.1 m
Radar Cross Section
RCS unknown

Expand to show TLE details & history
Last TLE update: 3 months ago

TLE from 3 months ago
0 INTELSAT 33E DEB
1 64406U 16053AL  25264.50840992 -.00000213  00000-0  00000-0 0  9998
2 64406   0.8006  62.0396 0137213  54.2135 245.1636  0.98887174  3180
Epoch: 2025-09-21T12:12Z
TLE epoch observation values (Epoch: 2025-09-21T12:12:06.617Z)
Latitude
-0.70982°
Longitude
176.34866°
Altitude
36,432.538 km
Speed
3.042 km/s
True Right ascension
00h 00m 00s
True Declination
0° 42' 33"
Sunlit
Object was in full shadow at epoch
Visualization orbit readout
Latitude
Unknown
Longitude
Unknown
Altitude
Unknown
Speed
Unknown
Apparent Right ascension
Unknown
Apparent Declination
Unknown
Sunlit
N/A
Visualization observer readout
Local Sidereal Time
01:05:57
Azimuth
Unknown
Elevation
Unknown
Doppler factor
Unknown
Orbital elements
Apogee altitude
36,764.292 km
Perigee altitude
35,596.377 km
Semi-major axis
42,558.472 km
Eccentricity
0.01372
Inclination
0.8006°
RAAN
62.0396°
Arg. of periapsis
54.2135°
True anomaly
243.74703°
Mean anomaly
245.1636°
Eccentric anomaly
244.45428°
Mean motion
0.24721 °/min
Orbital period
1,456.26 mins
BSTAR
0
Loading maneuver chart data...
Computing Atmospheric mass density...
Loading historical data...
Loading historical data...
Loading historical data...
Loading historical data...
Loading historical data...
Loading historical data...
Loading historical data...

Documentation

Showing up to 5 results
|